Jacksonville Craig, FL

12:43 AM EST on December 14, 2017 (GMT -0500)
Craig Municipal

Weather History for KCRG - September, 2011

Change the Weather History Date:

Monday, September 26, 2011

  Actual Average Record
Temperature  
Mean Temperature 80 °F -  
Max Temperature 88 °F 81 °F 91 °F (2005)
Min Temperature 73 °F 68 °F 64 °F (2001)
Cooling Degree Days 16    
Growing Degree Days 30 (Base 50)    
Moisture  
Dew Point 72 °F    
Average Humidity 85    
Maximum Humidity 97    
Minimum Humidity 59    
Precipitation  
Precipitation 0.75 in - - ()
Sea Level Pressure  
Sea Level Pressure 29.93 in    
Wind  
Wind Speed 5 mph (South)    
Max Wind Speed 37 mph    
Max Gust Speed 51 mph    
Visibility 8 miles    
Events Fog , Rain , Thunderstorm    
Averages and records for this station are not official NWS values.
T = Trace of Precipitation, MM = Missing Value Source: NWS Daily Summary

Daily Weather History Graph

Daily Weather History Graph

Search for Another Location

Airport or City:

Trip Planner

Search our weather history database for the weather conditions in past years. The results will help you decide how hot, cold, wet, or windy it might be!

Date:

Astronomy

Sep. 26, 2011 Rise Set
Actual Time 7:16 AM EDT 7:17 PM EDT
Civil Twilight 6:52 AM EDT 7:41 PM EDT
Nautical Twilight 6:24 AM EDT 8:09 PM EDT
Astronomical Twilight 5:56 AM EDT 8:37 PM EDT
Moon 6:15 AM EDT (9/26) 6:34 PM EDT (9/26)
Length of Visible Light 12h 49m
Length of Day
12h 01m
Waning Crescent, 1% of the Moon is Illuminated
Sep 26
Waning Crescent
Sep 27
New
Oct 3
First Quarter
Oct 11
Full
Oct 19
Last Quarter

Hourly Weather History & Observations

Time (EDT) Temp. Heat Index Dew Point Humidity Pressure Visibility Wind Dir Wind Speed Gust Speed Precip Events Conditions
12:53 AM 75.0 °F - 73.0 °F 94% 29.94 in 10.0 mi Calm Calm - N/A   Scattered Clouds
1:53 AM 75.0 °F - 73.0 °F 94% 29.92 in 10.0 mi Calm Calm - N/A   Partly Cloudy
3:53 AM 75.0 °F - 73.0 °F 94% 29.90 in 10.0 mi Calm Calm - N/A   Clear
5:53 AM 73.9 °F - 72.0 °F 93% 29.91 in 10.0 mi Calm Calm - N/A   Clear
6:53 AM 73.0 °F - 71.1 °F 93% 29.92 in 10.0 mi Calm Calm - N/A Fog Clear
7:53 AM 73.9 °F - 73.0 °F 97% 29.94 in 10.0 mi Calm Calm - N/A   Clear
8:51 AM 78.8 °F - 75.2 °F 89% 29.96 in 10.0 mi SW 4.6 mph - N/A   Partly Cloudy
8:53 AM 79.0 °F - 75.0 °F 88% 29.96 in 10.0 mi Variable 4.6 mph - N/A   Scattered Clouds
9:14 AM 78.8 °F - 75.2 °F 89% 29.96 in 10.0 mi SW 4.6 mph - N/A   Mostly Cloudy
9:53 AM 79.0 °F - 75.0 °F 88% 29.97 in 10.0 mi SW 5.8 mph - N/A   Overcast
10:40 AM 80.6 °F 86.2 °F 75.2 °F 84% 29.98 in 10.0 mi SW 8.1 mph - N/A   Mostly Cloudy
11:30 AM 84.2 °F 92.3 °F 75.2 °F 74% 29.96 in 10.0 mi WSW 6.9 mph - N/A   Mostly Cloudy
11:53 AM 84.0 °F 91.9 °F 75.0 °F 74% 29.96 in 10.0 mi South 6.9 mph - N/A   Mostly Cloudy
12:53 PM 84.9 °F 92.1 °F 73.9 °F 69% 29.95 in 10.0 mi Calm Calm - N/A   Mostly Cloudy
1:26 PM 86.0 °F 93.4 °F 73.4 °F 66% 29.93 in 10.0 mi Variable 3.5 mph - N/A   Scattered Clouds
1:53 PM 88.0 °F 94.7 °F 72.0 °F 59% 29.91 in 10.0 mi South 5.8 mph - N/A   Partly Cloudy
2:53 PM 87.1 °F 94.5 °F 73.0 °F 63% 29.89 in 10.0 mi South 8.1 mph - N/A   Mostly Cloudy
3:53 PM 86.0 °F 95.1 °F 75.0 °F 70% 29.87 in 10.0 mi SE 9.2 mph - N/A   Mostly Cloudy
4:44 PM 84.2 °F 92.3 °F 75.2 °F 74% 29.88 in 10.0 mi SE 12.7 mph 19.6 mph 0.00 in Rain , Thunderstorm Light Thunderstorms and Rain
4:53 PM 78.1 °F - 71.1 °F 79% 29.90 in 1.0 mi South 36.8 mph 50.6 mph 0.11 in Rain , Thunderstorm Light Thunderstorms and Rain
4:55 PM 75.2 °F - 69.8 °F 83% 29.93 in 0.5 mi South 23.0 mph 50.6 mph 0.15 in Rain , Thunderstorm Thunderstorms and Rain
4:58 PM 75.2 °F - 69.8 °F 83% 29.92 in 0.2 mi SW 13.8 mph 50.6 mph 0.39 in Rain , Thunderstorm Heavy Thunderstorms and Rain
5:06 PM 75.2 °F - 68.0 °F 78% 29.90 in 0.5 mi North 5.8 mph - 0.62 in Rain , Thunderstorm Heavy Thunderstorms and Rain
5:09 PM 75.2 °F - 68.0 °F 78% 29.90 in 0.8 mi NNE 4.6 mph - 0.63 in Rain , Thunderstorm Heavy Thunderstorms and Rain
5:11 PM 73.4 °F - 69.8 °F 88% 29.90 in 1.0 mi Variable 4.6 mph - 0.63 in Rain , Thunderstorm Thunderstorms and Rain
5:14 PM 73.4 °F - 69.8 °F 88% 29.91 in 4.0 mi Variable 3.5 mph - 0.63 in Rain , Thunderstorm Light Thunderstorms and Rain
5:53 PM 75.0 °F - 71.1 °F 87% 29.91 in 10.0 mi NNE 6.9 mph - 0.63 in   Overcast
6:22 PM 73.4 °F - 71.6 °F 94% 29.91 in 10.0 mi ENE 8.1 mph - 0.00 in Rain Light Rain
6:53 PM 75.0 °F - 72.0 °F 90% 29.89 in 10.0 mi NNE 6.9 mph - 0.00 in Rain Light Rain
7:36 PM 75.2 °F - 73.4 °F 94% 29.92 in 10.0 mi SW 5.8 mph - 0.01 in Rain , Thunderstorm Light Thunderstorms and Rain
7:53 PM 75.0 °F - 73.0 °F 94% 29.91 in 10.0 mi West 3.5 mph - 0.01 in Rain , Thunderstorm Light Thunderstorms and Rain
8:40 PM 75.2 °F - 73.4 °F 94% 29.95 in 10.0 mi North 6.9 mph - 0.00 in Rain , Thunderstorm Light Thunderstorms and Rain
8:49 PM 75.2 °F - 71.6 °F 89% 29.95 in 10.0 mi North 5.8 mph - 0.00 in Rain , Thunderstorm Light Thunderstorms and Rain
8:53 PM 75.0 °F - 72.0 °F 90% 29.95 in 10.0 mi North 5.8 mph - 0.00 in   Overcast
9:04 PM 73.4 °F - 71.6 °F 94% 29.95 in 10.0 mi East 3.5 mph - N/A   Overcast
9:48 PM 75.2 °F - 71.6 °F 89% 29.98 in 10.0 mi Calm Calm - N/A   Overcast
9:53 PM 75.0 °F - 72.0 °F 90% 29.98 in 10.0 mi Calm Calm - N/A   Overcast
10:25 PM 73.4 °F - 71.6 °F 94% 29.97 in 10.0 mi ENE 5.8 mph - N/A   Mostly Cloudy
10:53 PM 75.0 °F - 72.0 °F 90% 29.97 in 10.0 mi SE 5.8 mph - N/A   Clear
11:53 PM 75.0 °F - 71.1 °F 87% 29.94 in 10.0 mi South 10.4 mph 20.7 mph N/A   Clear